Terminal Aerodrome Forecast
Issued by NWS

Home | Current Version | Previous Version | Text Only | Print | Product List | Glossary On
Versions: 1 2 3 4 5 6 7 8 9 10 11 12 13 14 15 16 17 18 19 20 21 22 23 24 25 26 27 28 29 30 31 32 33 34 35 36 37 38 39 40 41 42 43 44 45 46 47 48
221
FTUS45 KBOU 101511 AAA
TAFBJC
TAF AMD
KBJC 101511Z 1015/1112 VRB05KT P6SM SCT100 BKN200
     FM101700 29014KT P6SM SCT100 BKN200
     FM102200 29016G24KT P6SM SCT090 BKN160
     FM110300 28014G24KT P6SM SCT080 BKN140
     FM110700 32014KT P6SM BKN070 OVC120 PROB30 1108/1112 4SM -SN
      BKN050=

USA.gov is the U.S. government's official web portal to all federal, state and local government web resources and services.